Tracking 35275 objects as of 9-Sep-2026
HD Live streaming from Space Station
objects crossing your sky now

CHANG E 1


CHANG E 1 is no longer on orbit


NORAD ID: 32273
Int'l Code: 2007-051A
Launch date: October 24, 2007
Source: People's Republic of China (PRC)
Launch site: Xichang Space Center, China (XSC)
Decay date: 2009-03-01
Your satellite tracking list
Your tracking list is empty




NASA's NSSDC Master Catalog

Two Line Element Set (TLE):
1 32273U 07051A   07299.50000000 -.00000211  00000-0  00000+0 0  9996
2 32273 031.0300 168.7760 8352900 185.0210 035.8162 00.99670452    24
Source of the keplerian elements: AFSPC